Milas, Turkey

5:24 AM +03 on August 19, 2017 (GMT +0300)
Bodrum

Weather History for LTFE - October, 2012

Change the Weather History Date:

Monday, October 1, 2012

  Actual Average Record
Temperature  
Mean Temperature 74 °F -  
Max Temperature 87 °F - - ()
Min Temperature 60 °F - - ()
Cooling Degree Days 8    
Growing Degree Days 24 (Base 50)    
Moisture  
Dew Point 60 °F    
Average Humidity 64    
Maximum Humidity 94    
Minimum Humidity 32    
Precipitation  
Precipitation 0.00 in - - ()
Sea Level Pressure  
Sea Level Pressure 30.02 in    
Wind  
Wind Speed 5 mph ()    
Max Wind Speed 21 mph    
Max Gust Speed 36 mph    
Visibility 6.2 miles    
Events Thunderstorm    
T = Trace of Precipitation, MM = Missing Value Source: Averaged Metar Reports

Daily Weather History Graph

Daily Weather History Graph

Search for Another Location

Airport or City:

Trip Planner

Search our weather history database for the weather conditions in past years. The results will help you decide how hot, cold, wet, or windy it might be!

Date:

Astronomy

Oct. 01, 2012 Rise Set
Actual Time 7:04 AM EEST 6:52 PM EEST
Civil Twilight 6:38 AM EEST 7:18 PM EEST
Nautical Twilight 6:08 AM EEST 7:48 PM EEST
Astronomical Twilight 5:38 AM EEST 8:18 PM EEST
Moon 7:21 PM EEST (10/1) 8:12 AM EEST (10/1)
Length of Visible Light 12h 39m
Length of Day
11h 47m
Full, 99% of the Moon is Illuminated
Oct 1
Full
Oct 8
Last Quarter
Oct 15
New
Oct 22
First Quarter
Oct 29
Full

Hourly Weather History & Observations

Time (EEST) Temp. Heat Index Dew Point Humidity Pressure Visibility Wind Dir Wind Speed Gust Speed Precip Events Conditions
12:20 AM 64.4 °F - 60.8 °F 88% 30.01 in - Variable 1.2 mph - N/A   Clear
12:50 AM 66.2 °F - 60.8 °F 83% 30.01 in - Calm Calm - N/A   Clear
1:20 AM 64.4 °F - 60.8 °F 88% 30.01 in - SE 3.5 mph - N/A   Clear
1:50 AM 64.4 °F - 59.0 °F 83% 30.01 in - SE 4.6 mph - N/A   Clear
2:20 AM 64.4 °F - 60.8 °F 88% 30.01 in - East 3.5 mph - N/A   Clear
3:20 AM 62.6 °F - 59.0 °F 88% 30.01 in - ESE 2.3 mph - N/A   Clear
3:50 AM 62.6 °F - 59.0 °F 88% 30.01 in - East 2.3 mph - N/A   Clear
4:20 AM 62.6 °F - 59.0 °F 88% 30.01 in - SE 3.5 mph - N/A   Clear
4:50 AM 64.4 °F - 59.0 °F 83% 30.01 in - Variable 2.3 mph - N/A   Clear
5:20 AM 62.6 °F - 60.8 °F 94% 30.01 in - Calm Calm - N/A   Clear
5:50 AM 60.8 °F - 57.2 °F 88% 30.01 in - Variable 2.3 mph - N/A   Clear
6:20 AM 60.8 °F - 57.2 °F 88% 30.01 in - East 3.5 mph - N/A   Clear
6:50 AM 60.8 °F - 57.2 °F 88% 30.01 in - Calm Calm - N/A   Clear
7:20 AM 60.8 °F - 59.0 °F 94% 30.01 in - Variable 2.3 mph - N/A   Clear
7:50 AM 60.8 °F - 59.0 °F 94% 30.01 in - East 2.3 mph - N/A   Clear
8:20 AM 66.2 °F - 60.8 °F 83% 30.04 in - Variable 1.2 mph - N/A   Clear
8:50 AM 69.8 °F - 62.6 °F 78% 30.04 in - Variable 1.2 mph - N/A   Clear
9:20 AM 73.4 °F - 62.6 °F 69% 30.04 in - Variable 2.3 mph - N/A   Clear
9:50 AM 77.0 °F - 62.6 °F 61% 30.04 in - Variable 2.3 mph - N/A   Clear
10:20 AM 78.8 °F - 62.6 °F 57% 30.04 in - Variable 1.2 mph - N/A   Clear
10:50 AM 80.6 °F 81.8 °F 62.6 °F 54% 30.04 in - Variable 2.3 mph - N/A   Clear
11:20 AM 82.4 °F 83.4 °F 62.6 °F 51% 30.01 in 6.2 mi West 4.6 mph - N/A   Partly Cloudy
11:50 AM 84.2 °F 85.6 °F 64.4 °F 51% 30.01 in 6.2 mi WNW 6.9 mph - N/A   Partly Cloudy
12:20 PM 86.0 °F 86.6 °F 62.6 °F 45% 30.01 in 6.2 mi WNW 6.9 mph - N/A   Partly Cloudy
12:50 PM 86.0 °F 86.1 °F 60.8 °F 43% 30.01 in 6.2 mi WNW 10.4 mph - N/A   Partly Cloudy
1:20 PM 86.0 °F 86.1 °F 60.8 °F 43% 29.98 in 6.2 mi West 11.5 mph - N/A   Partly Cloudy
1:50 PM 87.8 °F 87.6 °F 60.8 °F 40% 29.98 in 6.2 mi West 12.7 mph - N/A   Partly Cloudy
2:20 PM 86.0 °F 87.3 °F 64.4 °F 48% 29.98 in 6.2 mi West 15.0 mph - N/A   Partly Cloudy
2:50 PM 86.0 °F 87.3 °F 64.4 °F 48% 29.98 in 6.2 mi West 16.1 mph - N/A   Partly Cloudy
3:20 PM 84.2 °F 85.6 °F 64.4 °F 51% 29.98 in 6.2 mi West 16.1 mph - N/A   Partly Cloudy
3:50 PM 82.4 °F 83.9 °F 64.4 °F 54% 29.98 in 6.2 mi WSW 17.3 mph - N/A   Partly Cloudy
4:20 PM 82.4 °F 83.9 °F 64.4 °F 54% 29.98 in 6.2 mi WSW 16.1 mph - N/A   Scattered Clouds
4:50 PM 82.4 °F 83.9 °F 64.4 °F 54% 30.01 in 6.2 mi West 16.1 mph - N/A   Mostly Cloudy
5:20 PM 80.6 °F 82.7 °F 66.2 °F 61% 30.01 in 6.2 mi West 11.5 mph - N/A   Mostly Cloudy
5:50 PM 80.6 °F 82.7 °F 66.2 °F 61% 30.01 in 6.2 mi West 10.4 mph - N/A   Mostly Cloudy
6:20 PM 80.6 °F 82.7 °F 66.2 °F 61% 30.04 in 6.2 mi SSW 6.9 mph - N/A   Mostly Cloudy
6:50 PM 78.8 °F - 66.2 °F 65% 30.04 in 6.2 mi WSW 3.5 mph - N/A Thunderstorm Thunderstorm
7:20 PM 78.8 °F - 64.4 °F 61% 30.09 in 6.2 mi NNE 10.4 mph - N/A Thunderstorm Thunderstorm
7:50 PM 78.8 °F - 57.2 °F 47% 30.06 in 6.2 mi North 8.1 mph - N/A Thunderstorm Thunderstorm
8:20 PM 82.4 °F - 50.0 °F 32% 29.98 in 6.2 mi WSW 18.4 mph 35.7 mph N/A Thunderstorm Thunderstorm
8:50 PM 77.0 °F - 53.6 °F 44% 30.04 in 6.2 mi NE 13.8 mph - N/A Thunderstorm Thunderstorm
9:20 PM 78.8 °F - 53.6 °F 42% 30.04 in 6.2 mi NE 15.0 mph - N/A   Scattered Clouds
9:50 PM 80.6 °F - 51.8 °F 37% 30.06 in 6.2 mi NE 13.8 mph - N/A Thunderstorm Thunderstorm
10:20 PM 78.8 °F - 55.4 °F 44% 30.06 in 6.2 mi NE 16.1 mph - N/A   Scattered Clouds
10:50 PM 78.8 °F - 55.4 °F 44% 30.06 in 6.2 mi ENE 20.7 mph - N/A   Scattered Clouds
11:20 PM 78.8 °F - 53.6 °F 42% 30.04 in 6.2 mi NE 11.5 mph - N/A   Scattered Clouds
11:50 PM 77.0 °F - 53.6 °F 44% 30.04 in 6.2 mi East 9.2 mph - N/A   Scattered Clouds